Regional Weather Roundup
Issued by NWS Wakefield, VA

Home | Current Version | Previous Version | Graphics & Text | Print | Product List | Glossary On
Versions: 1 2 3 4 5 6 7 8 9 10 11 12 13 14 15 16 17 18 19 20 21 22 23 24 25 26 27 28 29 30 31 32 33 34 35 36 37 38 39 40 41 42 43 44 45 46 47 48 49 50
000
ASUS41 KAKQ 050715
RWRAKQ

REGIONAL WEATHER ROUNDUP
NATIONAL WEATHER SERVICE WAKEFIELD VA
300 AM EDT SUN JUL 05 2015

Note: "fair" indicates few or no clouds below 12,000 feet with no
significant weather and/or obstructions to visibility. * = Denotes
station may not report precipitation (e.g., rain,snow,etc.),
thunder or fog.

VAZ042-051-052>054-056-050800-
NORTHERN VIRGINIA

CITY           SKY/WX    TMP DP  RH WIND       PRES   REMARKS
WASH NATIONAL  MOCLDY    73  68  84 N3        30.06R HAZE
DULLES         PTCLDY    68  66  93 NE3       30.06R FOG
FORT BELVOIR   FOG       70  68  94 NW2       30.06R VSB 1/2
QUANTICO       CLOUDY    70  67  90 NW5       30.06R
FREDERICKSBRG* CLEAR     69  69 100 CALM      30.04S FOG
STAFFORD*      CLOUDY    65  65  97 NW5       30.09S FOG
WARRENTON      CLOUDY    68  68 100 CALM      30.06R FOG
CULPEPER*      FOG       66  66 100 CALM      30.08R VSB 1/4
MANASSAS*        N/A    N/A N/A N/A MISG        N/A
LEESBURG*      PTCLDY    64  64 100 CALM      30.08R FOG
WINCHESTER     PTCLDY    66  66 100 CALM      30.08R FOG
FRONT ROYAL*   CLOUDY    66  66 100 CALM      30.07R
LURAY*         FOG       68  68 100 CALM      30.09R VSB 1/4
$$

VAZ048-049-060>072-079>083-050800-
CENTRAL AND SOUTH CENTRAL VIRGINIA

CITY           SKY/WX    TMP DP  RH WIND       PRES   REMARKS
RICHMOND       PTCLDY    70  66  88 CALM      30.04S FOG
CHESTERFIELD*  NOT AVBL
PETERSBURG*    CLEAR     69  69 100 CALM      30.04S
HANOVER        CLEAR     69  69 100 NE3       30.06R FOG
TAPPAHANNOCK*  CLEAR     68  65  92 CALM      30.05S
QUINTON*       NOT AVBL
CHARLOTTSVILLE PTCLDY    67  65  93 N3        30.06S FOG
GORDONSVILLE*  FOG       64  64 100 CALM      30.05S VSB 1/2
ORANGE*        FOG       68  68 100 CALM      30.07S VSB 1/4
LOUISA*        FOG       70  68  94 CALM      30.05R VSB 3/4
BUMPASS*       CLOUDY    69  69  99 CALM      30.05S
FARMVILLE*     PTCLDY    67  67 100 CALM      30.05R FOG
CREWE*         PTSUNNY   68  66  95 CALM      30.04S
FORT PICKETT*  PTSUNNY   70  69  98 W8        30.05R
CHASE CITY*    PTSUNNY   72  72 100 CALM      30.05S
CLARKSVILLE*   CLOUDY    70  70 100 CALM      30.04S
SOUTH HILL*    MOCLDY    70  69  96 CALM      30.11R
LAWRENCEVILLE* NOT AVBL
EMPORIA*         N/A     72  72 100 CALM      30.05S
$$

VAZ088>098-050800-
SOUTHEAST VIRGINIA

CITY           SKY/WX    TMP DP  RH WIND       PRES   REMARKS
NORFOLK        MOCLDY    74  71  91 S3        30.03S
VIRGINIA BEACH MOCLDY    76  70  82 S3        30.02S
NORFOLK NAVAL  MOCLDY    72  71  97 CALM      30.04S
WEST POINT*    PTCLDY    69  67  93 CALM      30.06R
SALUDA*        FAIR      68  67  98 CALM      30.04R
NEWPORT NEWS   MOCLDY    71  70  96 N3        30.03S
LANGLEY AFB    PTCLDY    72  71  95 SW5       30.02R
FORT EUSTIS    PTCLDY    72 N/A N/A CALM      30.01S
WILLIAMSBURG*  PTCLDY    73  72  94 N3        30.04S
HR EXEC AP*    FAIR      70  66  88 CALM      30.05S
FRANKLIN*      CLOUDY    71  69  93 CALM      30.04S
WAKEFIELD      PTCLDY    72  70  93 CALM      30.03S
$$

VAZ020-022-025-037-045-050800-
WEST CENTRAL AND SOUTHWEST VIRGINIA

CITY           SKY/WX    TMP DP  RH WIND       PRES   REMARKS
STAUNTON*      CLEAR     68  65  92 CALM      30.11R FOG
WAYNESBORO*    FAIR      65  64  99 CALM      30.10R
HOT SPRINGS VA PTCLDY    63  63 100 CALM      30.18S
LYNCHBURG      FOG       69  69 100 CALM      30.08R VSB 1/4
DANVILLE       LGT RAIN  72  69  90 CALM      30.05F
SOUTH BOSTON*  FAIR      69  68  96 MISG      30.05R
MARTINSVILLE   MOCLDY    70  70 100 CALM      30.09S FOG
ROANOKE        PTCLDY    68  66  93 N5        30.09S
BLACKSBURG     FOG       66  66 100 CALM      30.15F VSB 1/4
DUBLIN*        CLOUDY    66  66 100 CALM      30.13F FOG
MARION*        RAIN      66  65  96 W6        30.17F
HILLSVILLE*    MOCLDY    65  64  97 CALM      30.14F
RICHLANDS*     CLOUDY    65  65 100 CALM      30.15S FOG
WISE*          CLOUDY    66  66 100 SE3       30.14F
ABINGDON*      CLOUDY    69  69 100 E3        30.12S
$$

MDZ021>025-VAZ099-100-050800-
SOUTHERN MARYLAND AND THE DELMARVA PENINSULA

CITY           SKY/WX    TMP DP  RH WIND       PRES   REMARKS
PATUXENT RIVER CLOUDY    72  70  93 NW7       30.03S FOG
BAY BRIDGE APT   N/A     70  68  94 CALM      30.05R
LEONARDTOWN    CLOUDY    70  68  94 CALM      30.05S VSB 1/4
DOVER          MOCLDY    66  66 100 NW3       30.03R
GEORGETOWN     PTCLDY    68  66  93 CALM      30.05R
EASTON         CLOUDY    70  70 100 E3        30.08S FOG
CAMBRIDGE      CLOUDY    72  68  88 CALM      30.03S
SALISBURY      CLOUDY    70  70 100 NE3       30.03S FOG
OCEAN CITY     CLOUDY    71  69  93 NW5       30.03R FOG
WALLOPS ISLAND CLOUDY    71  71 100 N5        30.04R FOG
ACCOMACK*      FOG       68  68 100 CALM      30.03R VSB 1
$$

NCZ012>017-030>032-050800-
NORTH CENTRAL AND EASTERN NORTH CAROLINA

CITY           SKY/WX    TMP DP  RH WIND       PRES   REMARKS
ROANOKE RAPIDS FAIR      72  70  94 CALM      30.04S
RALEIGH        MOCLDY    72  68  87 SW5       30.05S
ELIZABETH CITY CLOUDY    76  72  87 SW3       30.04R
AHOSKIE*       MOCLDY   N/A N/A N/A CALM      30.04S
EDENTON*       RAIN      74  70  88 NW8G21    30.05S
CURRITUCK*     MOCLDY    75  72  91 CALM      30.05R
KILL DEVIL HLS PTCLDY    79  73  82 SW6       30.03S
MANTEO         MOCLDY    78  74  89 SW9       30.04S
CAPE HATTERAS  PTCLDY    77  75  93 W13G18    30.06S
TARBORO*         N/A     73  70  90 CALM      30.06R
GOLDSBORO      PTCLDY    77  73  87 SW6       30.03S
WASHINGTON     PTCLDY    73  69  87 CALM      30.06S
GREENVILLE     PTCLDY    73  72  94 SW3       30.06S
NEW BERN       MOCLDY    78  72  81 SW7       30.07S
WILMINGTON     PTCLDY    78  69  73 W8        30.08R
$$

VAZ048-050800-
ELSEWHERE

CITY           SKY/WX    TMP DP  RH WIND       PRES   REMARKS
HARRISBURG PA  PTCLDY    63  61  93 NW3       30.06S FOG
BALTIMORE      MOCLDY    67  65  93 N3        30.06R
ANNAPOLIS      CLOUDY    71  68  90 NW5       30.05R FOG
ANDREWS AFB    PTCLDY    67  67  99 N5        30.05R FOG
PHILADELPHIA   CLOUDY    71  57  61 CALM      30.06S
HENDERSON NC   PTCLDY    70  68  92 SW5       30.04S
GREENSBORO     MOCLDY    71  68  90 S3        30.06F
ROCKY MOUNT    MOCLDY    72  70  93 CALM      30.05R
$$

VAZ100-050800-
MARINE

STATION/POSITION TIME  TEMP    WIND        PRES    WAVE   SWELL
                       AIR SEA DIR/SP/G            HT/PER HT/PER
                 (UTC) (F)     (DEG/KT/KT) (MB)    (FT/S) (FT/S)
BRANDYWINE LGT   0600   71 72   90/  6/  7 1017.0F
CAPE MAY NJ      0600   70 77   90/  2/  3 1016.3F
LEWES DE         0600   71 73  100/  4/  5 1016.8F
15NM E FENWICK I 0650   72 73              1016.6R   4/ 8
OCEAN-CITY-INLET 0600   72 73   20/  3/  5 1016.5S
WACHAPREAGUE VA  0600   70 79  290/  1/  2 1016.5F
GOOSES REEF MD   0700   74 78   90/  4/  6 1018.2R
COVE POINT MD    0600   71     300/  3/  5 1017.6R
SOLOMONS ISLAND  0600      79                N/A
BISHOPS HEAD MD  0600   73      40/  5/  6 1016.6R
PINEY POINT MD   0600           10/  7/  7   N/A
CAMBRIDGE MD     0600   71 79  140/  1/  2 1016.8R
LEWISETTA VA     0600   71 79  340/  3/  4 1016.5F
RAPPAHANNOCK LGT 0600          310/  7/  7 1016.9F
STINGRAY PT      0700   75 80  330/  6/  8 1017.1R   1
YORK RVR RNG VA  0600   75     300/  3/  4 1016.2S
YORKTOWN VA      0600   73 80  310/  2/  5 1016.4F
JAMESTOWN VA     0700   73 82   20/  4/  4   N/A
DOMINION TERM VA 0600   75     210/  3/  4 1016.5F
KIPTOPEKE VA     0600      83  320/  5/  7   N/A
CHES BAY BRIDGE  0600   76 74  200/  4/  5 1016.2F
CAPE HENRY VA    0600   74     210/  3/  5   N/A
CHESAPEAKE LGHT  0600   76     310/  5/  5 1017.3F
WILLOUBY STN VA  0600   74     360/  2/  3 1017.4F
CAPE HENRY BUOY  0628      78                N/A     2/ 8
1ST LANDING BUOY 0700      76              1016.5R   2/ 4
CAPE CHARLES BUO 0626      77                N/A     2/ 8   2/ 8
OFFSHORE WE BUOY 0611      77                N/A     4/ 7   3/ 7
64NM E OF VA BCH 0650   77 76  290/  8/ 10 1016.5R   4/ 7   3/ 7
DUCK PIER NC     0600   80 72  240/ 11/ 13   N/A
44100 DUCK FRF   0624      77                N/A     2/ 7
44056 DUCK FRF   0611      77                N/A     2/ 9
OREGON INLET NC  0600   80 80  230/ 12/ 14 1017.3F
HATTERAS NC      0600   78 79  230/ 11/ 14 1017.5F
DIAMOND SHLS NC  0650   80 81  240/ 17/ 19 1017.7R   5/ 6   2/ 9
CAPE LOOKOUT NC  0700   79     240/ 10/ 14 1017.9S
$$



USA.gov is the U.S. government's official web portal to all federal, state and local government web resources and services.